Location: *
(50.3440°N, 18.6237°E)
Time: 17:46:04
(UTC+00:00)

Cosmos 1933 - Pass Details

Date: 30 November 2020
Orbit: 546 x 563 km, 82.5° (Epoch: 17 January)

Event Time Altitude Azimuth Distance (km) Brightness Sun altitude
Rises 16:29:21 0° 196° (SSW) 2,724 7.3 -15.8°
Reaches altitude 10° 16:31:31 10° 199° (SSW) 1,838 6.4 -16.2°
Maximum altitude 16:35:32 65° 281° (WNW) 618 3.7 -16.8°
Drops below altitude 10° 16:39:37 10° 5° (N) 1,864 5.8 -17.4°
Enters shadow 16:40:38 - 7° (N) 2,277 6.3 -17.6°
